Charter Quote
Worldwide +44-20-3874-8091 Call
Select Language Lang
SAFETY RELIABILITY EXPERIENCE

Richmond Airport (YSRI) - Jet Charter Services

AIRPORT INFORMATION
ICAOYSRI
IATARCM
LOCATIONRichmond, Australia
FACILITY TYPEAIRPORT
Runway Length (ft) Width (ft) Surface Type Elevation (ft)
28/10 7001 148 ASP 66.95082

At Paramount Business Jets you can hire chartered private jets to and from Richmond Airport with as little as 4 hours of notice. All flights booked via Paramount Business Jets are operated by certified direct air carriers that meet and exceed the FAA part 135 and 121 protocol or a foreign equivalent safety authority. Furthermore, Paramount Business Jets subscribes to ARGUS for their third party safety checks of operators, aircraft, and crews prior each and every flight to and from Richmond Airport and worldwide.

  • Quote a trip using Richmond Airport or call us 24/7 - 365 days a year at +44-20-3874-8091.
Questions? Call +44-20-3874-8091

METAR Weather Data at Richmond Airport, YSRI, RCM

STATIONYSRI
OBSERVEDSun Mar 24, 11:00 UTC
NOWSun Mar 24, 11:27 UTC
AGE27 min ago
WINDN at 3 mph
VISIBILITY16 miles
METARYSRI 241100Z AUTO 35003KT 9999 // SCT125 23/22 Q1011

Call us on +44-20-3874-8091 (24 Hours) to Hire a Private Jet or Get a Quick Quote.

Find Airports Near any Location

Processing
...